Weather History for Bennington, VT

Change the Weather History Date:

Friday, January 25, 2013

  Actual Average Record
Temperature  
Mean Temperature 7 °F 21 °F  
Max Temperature 14 °F 31 °F 20 °F (2014)
Min Temperature -1 °F 12 °F 13 °F (2014)
Degree Days  
Heating Degree Days 58 44  
Month to date heating degree days 1022 1096  
Since 1 July heating degree days 3467 3868  
Cooling Degree Days 0 0  
Month to date cooling degree days 0 0  
Year to date cooling degree days 0 0  
Moisture  
Dew Point -2 °F    
Average Humidity 61    
Maximum Humidity 83    
Minimum Humidity 38    
Precipitation  
Precipitation 0.01 in 0.08 in 0.08 in (2014)
Month to date precipitation 0.45 2.29  
Year to date precipitation 0.45 2.29  
Sea Level Pressure  
Sea Level Pressure 30.19 in    
Wind  
Wind Speed 3 mph (NW)    
Max Wind Speed 9 mph    
Max Gust Speed 13 mph    
Visibility 6 miles    
Events Snow    
T = Trace of Precipitation, MM = Missing Value Source: NWS Daily Summary

Daily Weather History Graph

Daily Weather History Graph

Search for Another Location

Airport:

Trip Planner

Search our weather history database for the weather conditions in past years. The results will help you decide how hot, cold, wet, or windy it might be!

Date:

Astronomy

Jan. 25, 2013 Rise Set
Actual Time 7:14 AM EST 4:57 PM EST
Civil Twilight 6:43 AM EST 5:27 PM EST
Nautical Twilight 6:09 AM EST 6:01 PM EST
Astronomical Twilight 5:35 AM EST 6:35 PM EST
Moon 3:51 PM EST (1/25) 5:52 AM EST (1/25)
Length of Visible Light 10h 43m
Length of Day
9h 42m
Waxing Gibbous, 98% of the Moon is Illuminated
Jan 25
Waxing Gibbous
Jan 26
Full
Feb 3
Last Quarter
Feb 10
New
Feb 17
First Quarter

Hourly Weather History & Observations

Time (EST) Temp. Windchill Dew Point Humidity Pressure Visibility Wind Dir Wind Speed Gust Speed Precip Events Conditions
12:54 AM 5.0 °F -4.1 °F -9.0 °F 52% 30.35 in 10.0 mi WNW 4.6 mph - N/A   Clear
1:54 AM 3.9 °F -3.4 °F -9.0 °F 55% 30.36 in 10.0 mi Variable 3.5 mph - N/A   Clear
2:54 AM 3.9 °F -8.2 °F -9.9 °F 53% 30.35 in 10.0 mi West 6.9 mph - N/A   Clear
4:54 AM 1.9 °F -9.2 °F -9.9 °F 58% 30.36 in 10.0 mi West 5.8 mph - N/A   Clear
5:54 AM 1.9 °F -7.6 °F -9.9 °F 58% 30.37 in 10.0 mi West 4.6 mph - N/A   Clear
6:54 AM 1.0 °F - -9.9 °F 60% 30.38 in 10.0 mi Calm Calm - N/A   Clear
7:54 AM -0.0 °F - -7.1 °F 72% 30.39 in 10.0 mi Calm Calm - N/A   Clear
8:54 AM 3.0 °F -6.4 °F -9.0 °F 57% 30.39 in 10.0 mi West 4.6 mph - N/A   Clear
9:54 AM 5.0 °F - -9.0 °F 52% 30.38 in 10.0 mi Calm Calm - N/A   Clear
10:54 AM 8.1 °F -2.0 °F -7.1 °F 50% 30.34 in 10.0 mi North 5.8 mph - N/A   Clear
11:54 AM 10.9 °F 2.9 °F -7.1 °F 44% 30.31 in 10.0 mi NNW 4.6 mph - N/A   Clear
12:54 PM 12.9 °F 3.8 °F -8.0 °F 39% 30.27 in 10.0 mi North 5.8 mph - N/A   Clear
2:54 PM 14.0 °F - -8.0 °F 37% 30.20 in 10.0 mi Calm Calm - N/A   Scattered Clouds
3:54 PM 14.0 °F 6.5 °F -8.0 °F 37% 30.19 in 10.0 mi NNW 4.6 mph - N/A   Scattered Clouds
4:54 PM 12.9 °F - -8.0 °F 39% 30.18 in 10.0 mi Calm Calm - N/A   Mostly Cloudy
5:54 PM 12.9 °F - -8.0 °F 39% 30.16 in 10.0 mi Calm Calm - N/A   Overcast
6:54 PM 14.0 °F - -6.0 °F 41% 30.12 in 10.0 mi Calm Calm - N/A   Overcast
7:46 PM 12.2 °F 6.1 °F 1.4 °F 62% 30.07 in 2.5 mi SW 3.5 mph - 0.00 in Snow Light Snow
7:54 PM 12.0 °F - 3.0 °F 67% 30.12 in 1.8 mi Calm Calm - 0.00 in Snow Light Snow
8:06 PM 12.2 °F - 3.2 °F 67% 30.06 in 2.0 mi Calm Calm - 0.00 in Snow Light Snow
8:33 PM 12.2 °F - 5.0 °F 73% 30.05 in 2.5 mi Calm Calm - 0.00 in Snow Light Snow
8:54 PM 12.0 °F - 6.1 °F 77% 30.10 in 3.0 mi Calm Calm - 0.00 in Snow Light Snow
9:23 PM 12.2 °F - 6.8 °F 79% 30.04 in 2.0 mi Calm Calm - 0.00 in Snow Light Snow
9:45 PM 10.4 °F - 6.8 °F 85% 30.03 in 3.0 mi Calm Calm - 0.00 in Snow Light Snow
9:54 PM 10.9 °F - 6.1 °F 81% 30.09 in 2.5 mi Calm Calm - 0.00 in Snow Light Snow
10:22 PM 12.2 °F - 6.8 °F 79% 30.03 in 2.0 mi Calm Calm - 0.00 in Snow Light Snow
10:32 PM 10.4 °F - 6.8 °F 85% 30.03 in 1.8 mi Calm Calm - 0.01 in Snow Light Snow
10:46 PM 10.4 °F - 6.8 °F 85% 30.03 in 2.5 mi Calm Calm - 0.01 in Snow Light Snow
10:54 PM 12.0 °F - 7.0 °F 80% 30.09 in 3.0 mi Calm Calm - 0.01 in Snow Light Snow
11:02 PM 10.4 °F - 6.8 °F 85% 30.03 in 2.0 mi Calm Calm - 0.00 in Snow Light Snow
11:15 PM 10.4 °F 4.0 °F 6.8 °F 85% 30.03 in 5.0 mi North 3.5 mph - 0.00 in   Overcast
11:54 PM 10.9 °F 4.7 °F 6.1 °F 81% 30.07 in 2.5 mi NNW 3.5 mph - 0.00 in Snow Light Snow